Flag for U.S.A. Weather past 2 weeks in Trenton, New Jersey, U.S.A.

Now
62 °F

Partly sunny.


Feels Like: 62 °F
Forecast: 45 / 66 °F
Wind: 3 mph from Southwest

Location: Mercer County Airport

Current Time: Oct 25, 2014 at 7:58:16 PM

Latest Report: Oct 25, 2014 at 6:53 PM


Visibility: 10 mi

Pressure: 29.65 "Hg

Humidity: 48%

Dew point: 42 °F

Location of TrentonLocation

Historic Weather in Trenton — Graph

°F

Trenton temperature yesterday

Maximum temperature yesterday: 68 °F (at 2:53 PM)
Minimum temperature yesterday: 50 °F (at 1:53 AM)
Average temperature yesterday: 58 °F

Past Weeks' High & Low Weather Summary

 TemperatureHumidityPressure
High78 °F (Oct 14, 1:53 PM)97% (Oct 14, 4:53 AM)30.31 "Hg (Oct 14, 4:53 AM)
Low33 °F (Oct 20, 4:53 AM)37% (Oct 19, 2:53 PM)29.58 "Hg (Oct 18, 1:53 PM)
Average58 °F72%29.91 "Hg
* Reported Oct 10 5:53 PM — Oct 25 5:53 PM, Trenton, Weather by CustomWeather, © 2014

Note: Actual official high and low records may vary slightly from our data, if they occured in-between our weather recording intervals... More about our weather records

Advertising

Trenton weather history for previous 24 hours

 ConditionsComfort  
Time TempWeatherWind HumidityBarometerVisibility
5:53 PM
Oct 25
65 °FSunny.7 mph44%29.65 "Hg10 mi
4:53 PM66 °FSunny.13 mph42%29.67 "Hg10 mi
3:53 PM67 °FSunny.10 mph41%29.68 "Hg10 mi
2:53 PM67 °FPassing clouds.14 mph41%29.72 "Hg10 mi
1:53 PM67 °FSunny.14 mph41%29.73 "Hg10 mi
12:53 PM65 °FSunny.10 mph44%29.78 "Hg10 mi
11:53 AM63 °FSunny.7 mph45%29.82 "Hg10 mi
10:53 AM60 °FSunny.9 mph44%29.86 "Hg10 mi
9:53 AM55 °FSunny.6 mph53%29.87 "Hg10 mi
8:53 AM50 °FSunny.3 mph50%29.88 "Hg10 mi
7:53 AM46 °FClear.5 mph56%29.88 "Hg10 mi
6:53 AM40 °FClear.6 mph73%29.87 "Hg10 mi
5:53 AM46 °FClear.No wind61%29.87 "Hg10 mi
4:53 AM48 °FClear.No wind54%29.87 "Hg10 mi
3:53 AM49 °FClear.No wind52%29.87 "Hg10 mi
2:53 AM52 °FClear.No wind47%29.87 "Hg10 mi
1:53 AM53 °FClear.No wind48%29.86 "Hg10 mi
12:53 AM54 °FClear.7 mph51%29.85 "Hg10 mi
11:53 PM
Oct 24
56 °FClear.3 mph51%29.84 "Hg10 mi
10:53 PM57 °FClear.6 mph51%29.84 "Hg10 mi
9:53 PM59 °FClear.6 mph49%29.83 "Hg10 mi
8:53 PM61 °FClear.5 mph48%29.82 "Hg10 mi
7:53 PM63 °FClear.8 mph43%29.81 "Hg10 mi
Weather by CustomWeather, © 2014

See weather overviewHow to use our weather pages